Weather reports worldwide

Advertisment
San Sebastian/Fuenterrabia, Spain (8029): temperature & dewpoint: 28.07.2020 22:00:00 - 03.08.2020 22:00:00 (CEST)San Sebastian/Fuenterrabia, Spain (8029): wind speed: 28.07.2020 22:00:00 - 03.08.2020 22:00:00 (CEST)San Sebastian/Fuenterrabia, Spain (8029): wind direction: 28.07.2020 22:00:00 - 03.08.2020 22:00:00 (CEST)San Sebastian/Fuenterrabia, Spain (8029): reduced air pressure: 28.07.2020 22:00:00 - 03.08.2020 22:00:00 (CEST)San Sebastian/Fuenterrabia, Spain (8029): visibility: 28.07.2020 22:00:00 - 03.08.2020 22:00:00 (CEST)
Date & Time tt [°C] td [°C] ff [km/h] ff [kn] dd ppp [hPa] vv [km]
03.08.2020 22:00:00 21,0 16,0 5 3 N - 10
03.08.2020 21:00:00 22,0 16,0 8 4 N - 10
03.08.2020 20:00:00 22,7 14,8 8 4 NNW 1018,9 10
03.08.2020 19:00:00 23,0 16,0 9 5 - - 10
03.08.2020 18:00:00 23,0 15,0 11 6 - - 10
03.08.2020 17:00:00 24,5 14,3 11 6 N 1019,0 30
03.08.2020 16:00:00 23,0 15,0 9 5 - - 10
03.08.2020 15:00:00 23,0 16,0 9 5 N - 10
03.08.2020 14:00:00 22,6 14,7 13 7 NNE 1019,7 30
03.08.2020 13:00:00 22,0 14,0 9 5 NW - 10
03.08.2020 12:00:00 22,0 15,0 9 5 N - 10
03.08.2020 11:00:00 23,0 13,5 9 5 NW 1019,5 10
03.08.2020 10:00:00 22,0 15,0 8 4 N - 10
03.08.2020 09:00:00 21,0 16,0 4 2 - - 10
03.08.2020 08:00:00 18,5 15,9 9 5 S 1019,0 30
03.08.2020 07:00:00 19,0 17,0 2 1 - - 10
03.08.2020 06:00:00 19,0 17,0 4 2 - - 10
03.08.2020 05:00:00 19,0 17,0 4 2 - - 10
03.08.2020 04:00:00 19,0 17,0 2 1 - - 10
03.08.2020 03:00:00 19,0 17,0 2 1 - - 10
03.08.2020 02:00:00 19,0 17,0 5 3 S - 10
03.08.2020 01:00:00 20,0 17,0 4 2 - - 10
03.08.2020 00:00:00 21,0 16,0 8 4 NE - 10
02.08.2020 23:00:00 21,0 17,0 5 3 N - 10
02.08.2020 22:00:00 21,0 16,0 8 4 N - 10
02.08.2020 21:00:00 22,0 16,0 9 5 N - 10
02.08.2020 20:00:00 22,0 15,6 8 4 N 1020,2 10
02.08.2020 19:00:00 22,0 16,0 11 6 N - 10
02.08.2020 18:00:00 23,0 16,0 9 5 N - 10
02.08.2020 17:00:00 22,8 17,0 9 5 N 1021,0 15
02.08.2020 16:00:00 22,0 16,0 9 5 N - 10
02.08.2020 15:00:00 23,0 16,0 9 5 N - 10
02.08.2020 14:00:00 23,4 16,9 8 4 N 1021,5 10
02.08.2020 13:00:00 23,0 17,0 8 4 NW - 10
02.08.2020 12:00:00 22,0 16,0 8 4 N - 10
02.08.2020 11:00:00 21,2 17,0 2 1 NNW 1021,4 15
02.08.2020 10:00:00 22,0 16,0 8 4 N - 10
02.08.2020 09:00:00 20,0 19,0 4 2 SSW - 10
02.08.2020 08:00:00 19,4 18,7 4 2 - 1021,1 10
02.08.2020 07:00:00 19,0 19,0 5 3 SW - 10
02.08.2020 06:00:00 19,0 19,0 5 3 SW - 10
02.08.2020 05:00:00 20,0 19,0 8 4 S - 7
02.08.2020 04:00:00 20,0 19,0 5 3 S - 10
02.08.2020 03:00:00 20,0 19,0 0 0 N - 10
02.08.2020 02:00:00 21,0 19,0 4 2 - - 10
02.08.2020 01:00:00 22,0 18,0 9 5 N - 10
02.08.2020 00:00:00 22,0 19,0 4 2 - - 10
01.08.2020 23:00:00 21,0 20,0 9 5 NE - 9
01.08.2020 22:00:00 21,0 20,0 5 3 N - 8
01.08.2020 21:00:00 22,0 20,0 5 3 N - 10
01.08.2020 20:00:00 21,0 19,8 4 2 - 1021,5 7
01.08.2020 19:00:00 21,0 20,0 8 4 SW - 4,0
01.08.2020 18:00:00 23,0 20,0 9 5 W - 10
01.08.2020 17:00:00 24,0 19,1 5 3 WSW 1021,4 10
01.08.2020 16:00:00 23,0 19,0 8 4 W - 10
01.08.2020 15:00:00 23,0 20,0 8 4 W - 10
01.08.2020 14:00:00 23,0 19,6 13 7 SW 1021,0 15
01.08.2020 13:00:00 22,0 19,0 8 4 SSW - 10
01.08.2020 12:00:00 21,0 20,0 5 3 WSW - 7
01.08.2020 11:00:00 20,6 19,6 8 4 W 1020,5 6
01.08.2020 10:00:00 21,0 20,0 0 0 N - 2,8
01.08.2020 09:00:00 21,0 20,0 5 3 SW - 8
01.08.2020 08:00:00 20,8 19,6 8 4 SW 1019,9 10
01.08.2020 07:00:00 21,0 20,0 8 4 SW - 10
01.08.2020 06:00:00 21,0 20,0 4 2 - - 10
01.08.2020 05:00:00 21,0 20,0 4 2 - - 10
01.08.2020 04:00:00 21,0 20,0 5 3 NNW - 2,9
01.08.2020 03:00:00 21,0 21,0 4 2 - - 2,6
01.08.2020 02:00:00 21,0 21,0 5 3 N - 2,6
01.08.2020 01:00:00 22,0 21,0 4 2 - - 3,5
01.08.2020 00:00:00 23,0 21,0 4 2 - - 10
31.07.2020 23:00:00 23,0 21,0 9 5 SSW - 8
31.07.2020 22:00:00 23,0 21,0 5 3 W - 10
31.07.2020 21:00:00 24,0 21,0 5 3 NW - 10
31.07.2020 20:00:00 24,0 20,5 8 4 N 1017,3 10
31.07.2020 19:00:00 24,0 21,0 8 4 N - 10
31.07.2020 18:00:00 25,0 21,0 9 5 NW - 10
31.07.2020 17:00:00 25,1 20,8 11 6 WNW 1017,2 20
31.07.2020 16:00:00 25,0 21,0 9 5 NW - 10
31.07.2020 15:00:00 25,0 21,0 11 6 NW - 10
31.07.2020 14:00:00 26,5 21,0 16 9 WNW 1016,4 10
31.07.2020 13:00:00 26,0 21,0 18 10 WNW - 10
31.07.2020 12:00:00 26,0 21,0 15 8 WNW - 10
31.07.2020 11:00:00 26,3 21,1 9 5 WNW 1015,4 10
31.07.2020 10:00:00 25,0 21,0 8 4 NW - 10
31.07.2020 09:00:00 25,0 21,0 5 3 SSW - 10
31.07.2020 08:00:00 23,8 21,5 4 2 SW 1014,6 22
31.07.2020 07:00:00 25,0 21,0 8 4 N - 10
31.07.2020 06:00:00 24,0 21,0 5 3 W - 10
31.07.2020 05:00:00 25,0 21,0 5 3 WSW - 10
31.07.2020 04:00:00 26,0 20,0 5 3 W - 10
31.07.2020 03:00:00 27,0 19,0 4 2 - - 10
31.07.2020 02:00:00 27,0 19,0 9 5 S - 10
31.07.2020 01:00:00 31,0 17,0 5 3 - - 10
31.07.2020 00:00:00 32,0 16,0 8 4 SE - 10
30.07.2020 23:00:00 32,0 16,0 8 4 - - 10
30.07.2020 22:00:00 33,0 14,0 15 8 SE - 10
30.07.2020 21:00:00 35,0 13,0 21 11 SSW - 10
30.07.2020 20:00:00 36,7 23,9 41 22 SSW 1011,6 10
30.07.2020 19:00:00 39,0 17,0 26 14 SSW - 10
30.07.2020 18:00:00 37,0 19,0 15 8 WNW - 10
30.07.2020 17:00:00 41,2 23,6 11 6 - 1009,2 10
30.07.2020 16:00:00 41,0 17,0 13 7 SE - 10
30.07.2020 15:00:00 40,0 18,0 15 8 SSE - 10
30.07.2020 14:00:00 35,9 20,6 8 4 N 1011,0 10
30.07.2020 13:00:00 30,0 23,0 11 6 N - 10
30.07.2020 12:00:00 28,0 23,0 11 6 N - 10
30.07.2020 11:00:00 25,9 20,2 8 4 N 1012,8 30
30.07.2020 10:00:00 24,0 19,0 2 1 - - 10
30.07.2020 09:00:00 21,0 19,0 5 3 S - 10
30.07.2020 08:00:00 19,0 17,5 8 4 SE 1014,0 10
30.07.2020 07:00:00 19,0 18,0 5 3 S - 10
30.07.2020 06:00:00 19,0 18,0 4 2 - - 10
30.07.2020 05:00:00 19,0 18,0 2 1 - - 10
30.07.2020 04:00:00 20,0 18,0 4 2 - - 10
30.07.2020 03:00:00 19,0 18,0 8 4 SSW - 10
30.07.2020 02:00:00 20,0 18,0 5 3 S - 10
30.07.2020 01:00:00 20,0 18,0 4 2 S - 10
30.07.2020 00:00:00 22,0 18,0 2 1 - - 10
29.07.2020 23:00:00 22,0 18,0 5 3 E - 10
29.07.2020 22:00:00 23,0 18,0 4 2 - - 10
29.07.2020 21:00:00 23,0 18,0 5 3 - - 10
29.07.2020 20:00:00 22,8 17,9 8 4 NNE 1016,9 30
29.07.2020 19:00:00 24,0 18,0 9 5 NNE - 10
29.07.2020 18:00:00 24,0 18,0 9 5 NNE - 10
29.07.2020 17:00:00 25,9 17,5 11 6 N 1017,8 10
29.07.2020 16:00:00 24,0 18,0 9 5 N - 10
29.07.2020 15:00:00 24,0 17,0 9 5 N - 10
29.07.2020 14:00:00 24,2 16,5 13 7 N 1018,9 30
29.07.2020 13:00:00 23,0 17,0 13 7 NNE - 10
29.07.2020 12:00:00 23,0 17,0 11 6 N - 10
29.07.2020 11:00:00 22,3 16,1 9 5 NNE 1019,7 10
29.07.2020 10:00:00 22,0 17,0 2 1 - - 10
29.07.2020 09:00:00 21,0 16,0 5 3 ESE - 10
29.07.2020 08:00:00 20,1 15,9 8 4 ESE 1019,7 22
29.07.2020 07:00:00 20,0 16,0 9 5 SE - 10
29.07.2020 06:00:00 20,0 16,0 5 3 ESE - 10
29.07.2020 05:00:00 21,0 16,0 9 5 NNE - 10
29.07.2020 04:00:00 21,0 16,0 11 6 NE - 10
29.07.2020 03:00:00 21,0 17,0 9 5 NE - 10
29.07.2020 02:00:00 21,0 17,0 8 4 NNE - 10
29.07.2020 01:00:00 21,0 17,0 9 5 NNE - 10
29.07.2020 00:00:00 21,0 17,0 8 4 NNE - 10
28.07.2020 23:00:00 22,0 18,0 9 5 NNE - 10
28.07.2020 22:00:00 22,0 18,0 8 4 N - 10

tt = temperature
td = dewpoint
ff = wind speed
dd = wind direction
ppp = reduced air pressure
vv = visibility

Next stations